Wind_Speed
15 14 14 13 13 12 12 12 11 11 11 11 11 11 11 11 11 12 11 11 11 11 11 12 12 12 12 13 13 13 13 14 14 15 15 15 16 16 16 16 16 16 16
16 16 15 15 14 14 14 14 13 13 13 13 13 13 13 13 13 13 14 14 13 13 13 14 14 14 14 14 14 14 15 16 16 16 16 17 17 17 17 17 17 17 18
17 17 17 16 16 15 15 15 14 14 14 14 14 14 15 15 15 16 16 16 16 16 16 16 16 16 16 16 17 17 17 17 17 17 18 18 18 18 19 19 19 19 19
19 19 19 18 17 17 17 16 16 15 15 16 16 16 17 17 17 17 17 17 17 17 17 17 18 18 18 19 19 19 19 19 19 19 20 20 20 20 21 21 21 21 21
20 20 20 19 18 18 18 18 18 17 17 17 17 17 18 18 18 18 18 18 18 19 19 19 20 20 20 20 20 20 21 21 21 21 22 22 22 22 23 23 23 23 23
22 21 21 20 20 20 19 19 19 19 19 19 19 19 19 19 19 19 19 19 19 20 20 21 21 21 22 22 22 22 22 23 23 23 23 24 24 24 24 24 25 25 25
23 22 22 22 22 21 21 20 20 20 20 20 20 20 20 20 20 20 20 20 21 21 22 22 23 23 23 23 23 24 23 24 24 24 24 25 25 26 26 26 26 27 27
24 24 23 23 23 23 22 22 21 21 21 21 21 21 21 21 21 21 21 22 22 23 23 23 24 24 24 24 24 25 25 25 25 25 26 26 27 27 28 28 28 28 29
25 25 24 24 24 23 23 23 22 22 22 22 22 22 22 22 22 22 22 23 23 23 23 24 24 24 25 25 25 26 26 26 27 27 28 28 28 29 29 30 30 30 30
26 25 25 25 24 24 23 23 23 23 22 22 22 22 22 22 22 23 23 23 24 24 24 24 25 25 25 26 27 27 28 28 29 29 30 30 30 31 31 31 32 32 32
26 26 25 25 25 24 24 24 24 23 23 23 23 23 23 23 24 24 24 24 25 25 25 26 26 27 27 27 28 29 29 30 30 31 31 31 32 32 33 33 33 34 34
26 26 26 26 25 25 24 24 24 24 24 24 24 24 25 25 25 26 26 26 26 27 27 27 28 28 28 28 29 29 30 30 31 32 32 32 33 33 34 35 35 35 36
26 26 26 26 26 26 25 25 25 25 25 25 25 25 26 26 27 27 27 27 28 28 28 28 28 28 28 29 29 30 31 31 32 32 33 34 34 35 36 36 36 37 37
27 26 26 27 27 27 26 26 26 26 26 26 27 27 27 27 28 28 28 28 28 28 28 28 28 29 29 30 31 32 33 33 34 35 35 36 37 37 38 38 39 40 40
28 27 27 28 28 27 27 27 27 27 27 27 28 28 28 29 29 29 29 29 28 28 28 29 30 31 32 32 33 34 35 36 36 37 38 39 40 40 41 42 42 43 43
29 28 27 27 27 28 28 28 28 28 28 28 29 29 30 30 30 29 29 29 29 30 30 31 32 32 33 34 35 36 37 37 38 39 40 41 42 42 43 44 45 45 46
28 27 28 28 27 27 27 28 29 29 29 29 30 30 30 30 29 29 29 30 30 31 32 32 33 34 35 36 37 38 38 39 40 41 42 42 44 44 45 46 47 47 48
27 27 27 27 27 27 28 28 28 29 29 30 30 30 30 30 30 29 30 31 32 33 33 34 35 36 37 37 38 39 40 41 42 43 44 45 46 47 48 49 49 50 50
28 28 27 27 27 27 28 28 29 29 30 30 31 31 30 31 31 31 32 32 33 34 35 36 37 38 39 39 40 40 42 43 44 46 46 47 48 49 50 50 51 51 52
29 29 29 29 29 28 28 29 29 30 30 30 30 31 31 32 32 33 34 34 35 36 37 38 38 39 40 41 42 42 43 45 46 47 48 49 50 51 51 51 52 53 54
30 30 30 30 30 29 30 30 30 30 30 31 31 32 32 33 33 34 35 36 37 37 38 39 40 41 42 43 44 45 45 46 47 49 50 51 51 52 54 54 55 55 56
30 30 31 31 31 30 30 31 31 31 31 32 33 33 33 34 35 35 36 37 38 39 40 41 42 43 44 46 47 48 47 48 49 50 51 52 52 54 55 56 56 57 57
31 31 31 32 32 32 32 32 32 32 33 33 34 35 35 36 36 37 37 39 40 41 42 43 44 45 46 47 49 51 51 50 50 51 52 53 54 55 56 56 56 57 57
32 32 32 33 33 33 33 33 33 33 34 35 35 36 36 37 38 38 39 40 41 42 43 44 46 47 49 50 51 53 54 54 54 53 52 53 54 54 55 55 56 57 57
33 33 33 33 34 34 34 34 34 35 35 36 36 37 38 38 39 40 41 41 42 44 45 46 48 49 51 52 54 55 55 55 56 56 54 53 53 54 55 56 57 57 58
34 34 34 34 34 35 35 35 35 36 36 37 37 38 39 40 40 41 42 43 44 45 46 48 49 51 53 54 55 55 56 56 56 56 56 55 54 54 55 56 57 58 58
Wind_Direction
245 246 247 248 250 252 253 252 251 252 255 258 260 264 267 270 271 273 274 273 273 274 275 274 274 275 278 278 279 280 279 279 280 281 282 283 284 285 286 287 287 286 284
246 246 248 248 249 250 251 251 250 252 254 257 259 262 266 268 270 272 273 273 273 274 275 274 274 276 277 278 279 281 281 281 282 282 282 282 283 284 285 285 285 285 285
245 246 246 247 247 248 249 250 250 252 253 256 259 263 265 267 268 270 272 272 272 272 273 273 274 275 276 277 279 279 281 281 281 281 282 282 282 283 284 284 283 283 283
243 244 246 247 247 247 248 249 250 252 254 256 260 264 266 268 269 270 271 270 271 271 272 273 274 275 276 277 279 280 280 280 280 280 282 282 282 282 283 283 282 282 282
244 244 245 246 247 247 248 249 251 253 255 258 260 264 266 267 268 269 270 270 270 271 272 274 275 276 276 277 279 280 281 280 281 281 282 282 282 282 283 283 282 282 281
244 245 246 247 247 247 248 251 253 255 257 259 261 264 266 267 267 268 269 270 271 272 273 274 275 276 276 278 279 279 279 280 281 282 282 283 283 283 283 283 282 282 281
246 246 247 247 248 249 250 251 253 256 258 260 262 264 265 267 268 268 269 271 272 274 274 274 275 276 277 278 278 278 279 279 281 282 283 283 283 283 283 283 282 282 281
246 247 248 248 248 250 251 252 254 257 259 260 261 263 264 266 268 269 270 271 273 274 275 275 276 277 277 278 279 279 280 280 281 282 283 283 283 284 284 284 283 282 281
246 247 248 248 249 250 252 254 256 257 258 259 261 262 264 266 268 270 271 272 274 275 276 277 278 278 279 280 280 280 280 281 282 283 283 283 283 283 283 283 283 282 282
245 246 247 248 249 251 252 254 256 257 258 259 260 262 264 266 268 270 272 273 274 275 277 278 279 280 280 281 281 281 281 281 281 282 282 282 282 283 283 283 283 282 282
244 245 246 248 250 251 253 254 255 257 258 259 260 262 263 266 268 270 272 274 275 276 277 278 279 280 280 281 281 281 281 282 282 282 282 282 282 283 283 283 283 282 282
244 244 245 247 250 251 252 254 255 257 258 259 261 263 264 266 268 271 273 274 275 277 278 279 279 280 281 281 281 282 282 283 283 283 283 283 283 283 284 283 283 283 282
243 244 246 247 249 250 252 254 256 257 259 260 262 264 266 268 270 272 273 274 276 277 278 279 280 281 281 282 282 283 283 284 284 285 285 285 285 284 284 284 284 283 283
243 245 246 247 248 250 252 255 256 258 260 261 263 265 267 269 271 272 273 275 276 277 278 279 280 281 282 283 283 283 284 285 285 285 285 285 285 285 284 284 284 283 283
244 246 248 249 250 251 252 254 256 258 260 262 264 266 268 270 271 272 273 274 276 277 278 280 281 281 282 283 284 285 285 285 285 285 285 285 285 284 284 284 284 283 282
244 246 248 250 250 250 251 253 256 258 260 263 265 267 269 271 272 272 273 274 275 277 278 280 281 282 283 284 285 285 286 286 286 286 286 285 285 285 285 285 284 283 282
243 245 247 248 249 250 252 254 256 259 261 263 266 268 269 270 271 273 273 274 276 277 279 280 281 283 284 286 286 286 286 287 287 287 287 286 286 286 286 285 285 284 283
244 246 247 248 248 250 253 255 258 260 262 264 267 268 269 270 272 273 275 275 276 277 279 280 282 284 285 286 287 288 287 288 289 288 288 288 288 287 287 287 286 284 283
244 246 247 248 249 251 254 257 260 262 264 265 267 268 269 271 272 274 276 277 278 278 280 282 283 285 286 287 288 289 289 289 290 289 289 289 288 288 287 287 286 285 284
244 245 247 249 251 253 255 258 260 263 265 267 268 269 270 271 273 275 276 278 279 280 281 283 284 286 287 287 288 288 289 290 290 290 289 289 289 289 288 287 286 286 285
245 246 247 250 252 254 255 258 260 263 265 267 268 270 271 273 274 276 277 279 281 282 283 283 284 286 287 288 289 289 289 290 291 290 290 290 290 289 288 288 287 287 286
246 247 248 250 253 255 256 258 261 263 266 267 269 271 272 274 275 276 278 280 281 283 284 284 285 287 288 289 290 290 290 290 290 290 290 290 290 290 289 289 288 288 287
247 248 249 251 253 255 257 259 261 264 266 268 270 272 273 275 276 278 279 281 282 283 285 286 287 288 288 290 291 291 291 291 290 290 290 290 291 291 291 290 289 289 289
247 248 250 252 254 256 258 260 262 264 267 268 271 273 274 276 277 279 281 282 283 284 286 287 288 289 290 291 291 292 292 293 293 291 290 291 292 293 292 292 292 291 290
247 248 250 252 255 257 259 261 263 265 268 270 272 274 276 277 278 280 281 283 285 286 287 288 289 290 291 292 292 293 293 293 294 294 293 293 293 294 294 294 293 293 292
248 250 252 254 256 258 260 262 264 266 269 271 273 275 276 278 279 280 282 284 286 287 289 290 291 291 292 292 293 293 293 294 294 294 294 294 294 294 295 295 294 293 293
Height
5864 5865 5866 5866 5867 5868 5868 5869 5869 5870 5870 5871 5871 5872 5872 5872 5872 5873 5872 5872 5872 5872 5871 5871 5871 5870 5870 5869 5869 5869 5868 5867 5867 5866 5865 5864 5864 5863 5862 5861 5860 5859 5858
5861 5862 5863 5864 5865 5866 5866 5867 5867 5868 5869 5869 5870 5870 5870 5870 5871 5871 5871 5870 5870 5870 5869 5869 5869 5868 5868 5867 5867 5866 5866 5865 5864 5863 5863 5862 5861 5860 5859 5858 5857 5856 5855
5859 5860 5861 5862 5862 5863 5864 5865 5865 5866 5867 5867 5868 5868 5868 5868 5868 5868 5868 5868 5868 5867 5867 5867 5866 5866 5865 5865 5864 5864 5863 5862 5861 5861 5860 5859 5858 5857 5856 5855 5854 5853 5852
5855 5856 5858 5859 5860 5860 5861 5862 5863 5864 5864 5865 5865 5866 5866 5866 5866 5866 5866 5865 5865 5865 5864 5864 5864 5863 5863 5862 5862 5861 5860 5859 5858 5858 5857 5856 5855 5854 5853 5852 5851 5849 5849
5852 5853 5854 5855 5856 5857 5858 5859 5860 5861 5862 5862 5862 5863 5863 5863 5863 5863 5863 5862 5862 5862 5861 5861 5861 5860 5860 5859 5858 5857 5857 5856 5855 5854 5853 5852 5851 5850 5849 5848 5847 5846 5845
5848 5849 5851 5852 5853 5854 5855 5856 5857 5858 5858 5859 5859 5860 5860 5860 5860 5860 5859 5859 5859 5859 5858 5858 5857 5857 5856 5856 5855 5854 5853 5852 5851 5850 5849 5848 5847 5846 5845 5844 5843 5842 5841
5844 5846 5847 5848 5849 5850 5852 5853 5854 5854 5855 5855 5856 5856 5856 5856 5856 5856 5856 5856 5856 5855 5855 5854 5854 5853 5852 5852 5851 5850 5849 5848 5847 5846 5845 5844 5843 5842 5840 5839 5838 5837 5836
5840 5842 5843 5844 5845 5847 5848 5849 5850 5851 5851 5852 5852 5852 5852 5853 5852 5852 5852 5852 5852 5851 5851 5850 5850 5849 5848 5848 5847 5846 5845 5844 5843 5842 5841 5839 5838 5837 5835 5834 5833 5832 5830
5836 5837 5839 5840 5841 5843 5844 5845 5846 5847 5847 5848 5848 5848 5849 5849 5849 5849 5848 5848 5848 5847 5847 5846 5845 5845 5844 5843 5842 5841 5840 5839 5838 5837 5836 5834 5833 5831 5830 5829 5827 5826 5825
5831 5833 5835 5836 5837 5838 5840 5841 5842 5842 5843 5844 5844 5844 5845 5845 5845 5844 5844 5844 5843 5843 5842 5842 5841 5840 5839 5838 5837 5836 5835 5834 5833 5831 5830 5829 5827 5826 5824 5823 5822 5820 5819
5827 5829 5830 5831 5833 5834 5835 5836 5837 5838 5839 5839 5840 5840 5840 5840 5840 5840 5840 5839 5839 5838 5838 5837 5836 5835 5834 5833 5832 5831 5829 5828 5827 5825 5824 5823 5821 5819 5818 5817 5815 5814 5812
5822 5824 5825 5827 5828 5829 5831 5832 5833 5833 5834 5834 5835 5835 5835 5836 5836 5835 5835 5835 5834 5833 5833 5832 5831 5830 5829 5828 5826 5825 5824 5822 5821 5819 5818 5816 5815 5813 5811 5810 5808 5807 5805
5817 5819 5820 5822 5823 5824 5826 5827 5828 5829 5829 5830 5830 5830 5830 5830 5830 5830 5830 5829 5829 5828 5827 5826 5825 5824 5823 5822 5821 5819 5817 5816 5814 5813 5811 5809 5808 5806 5804 5803 5801 5799 5798
5812 5814 5815 5817 5818 5819 5821 5822 5823 5824 5824 5824 5825 5825 5825 5825 5825 5824 5824 5824 5823 5822 5822 5821 5820 5818 5817 5816 5814 5813 5811 5809 5808 5806 5804 5802 5800 5798 5797 5795 5793 5791 5789
5806 5808 5810 5811 5813 5814 5815 5817 5817 5818 5819 5819 5819 5819 5819 5819 5819 5819 5818 5818 5817 5816 5816 5815 5814 5812 5811 5809 5807 5806 5804 5802 5800 5798 5796 5794 5792 5790 5788 5786 5784 5782 5780
5801 5802 5804 5806 5807 5809 5810 5811 5812 5813 5813 5814 5814 5814 5814 5813 5813 5813 5812 5812 5811 5810 5809 5808 5807 5806 5804 5802 5801 5799 5797 5794 5792 5790 5788 5786 5783 5781 5779 5776 5774 5772 5770
5794 5796 5798 5800 5801 5803 5804 5805 5806 5807 5807 5808 5808 5807 5807 5807 5807 5806 5806 5805 5805 5804 5803 5801 5800 5799 5797 5795 5793 5791 5788 5786 5784 5781 5779 5776 5773 5771 5768 5766 5763 5761 5759
5788 5791 5792 5794 5795 5797 5798 5799 5800 5801 5801 5801 5801 5801 5801 5801 5800 5800 5799 5799 5798 5797 5795 5794 5793 5791 5789 5787 5785 5782 5780 5777 5774 5771 5769 5766 5763 5760 5757 5754 5751 5749 5746
5782 5784 5786 5788 5789 5791 5792 5793 5794 5794 5795 5795 5795 5795 5794 5794 5794 5793 5793 5791 5790 5789 5788 5786 5785 5783 5781 5778 5776 5773 5771 5768 5765 5761 5758 5755 5751 5748 5745 5742 5738 5735 5733
5776 5778 5780 5781 5783 5785 5786 5787 5787 5787 5788 5788 5788 5788 5787 5787 5787 5786 5785 5784 5783 5781 5780 5778 5776 5774 5771 5769 5767 5764 5761 5758 5754 5750 5747 5743 5739 5736 5732 5728 5725 5722 5719
5770 5772 5773 5775 5777 5778 5779 5780 5780 5781 5781 5781 5781 5781 5780 5780 5779 5778 5777 5776 5775 5773 5771 5769 5767 5765 5762 5759 5756 5754 5752 5748 5744 5739 5735 5731 5727 5723 5719 5715 5711 5708 5704
5763 5765 5766 5768 5770 5771 5772 5773 5773 5774 5774 5774 5773 5773 5773 5772 5771 5770 5769 5768 5766 5764 5762 5760 5757 5755 5752 5748 5745 5742 5740 5739 5734 5729 5724 5719 5715 5710 5706 5701 5697 5693 5689
5755 5757 5759 5760 5762 5763 5764 5765 5766 5766 5766 5766 5766 5765 5764 5764 5763 5761 5760 5759 5757 5755 5752 5750 5747 5744 5741 5738 5733 5729 5726 5724 5722 5719 5712 5707 5702 5697 5692 5687 5682 5677 5673
5748 5749 5751 5753 5754 5755 5756 5757 5758 5758 5758 5758 5757 5757 5756 5755 5754 5752 5751 5749 5747 5745 5742 5740 5737 5733 5730 5727 5723 5717 5712 5708 5705 5703 5701 5695 5690 5684 5678 5672 5667 5662 5658
5739 5741 5743 5745 5746 5747 5748 5749 5750 5750 5750 5749 5749 5748 5747 5746 5744 5743 5741 5739 5737 5735 5732 5729 5726 5722 5718 5714 5710 5705 5700 5695 5690 5686 5685 5683 5678 5672 5665 5658 5652 5647 5642
5731 5733 5735 5736 5738 5739 5740 5740 5741 5741 5741 5741 5740 5739 5738 5737 5735 5733 5731 5729 5727 5724 5721 5718 5714 5710 5706 5701 5697 5692 5687 5683 5678 5673 5669 5667 5664 5660 5653 5645 5639 5633 5628